Location: Silverdale
(47.6506°N, 122.6941°W)
Time: 03:22:00
(UTC+00:00)

Altair - Pass Details

Date: 11 October 2022
Orbit: 1501 x 1682 km, 47.2° (Epoch: 05 December)

Event Time Altitude Azimuth Distance (km) Brightness Sun altitude
Rises 11:03:30 0° 230° (SW) 4,700 - -33.5°
Reaches altitude 10° 11:06:33 10° 226° (SW) 3,741 - -33.0°
Exits shadow 11:13:58 52° 189° (S) 1,918 7.7 -31.9°
Maximum altitude 11:15:48 59° 150° (SSE) 1,811 7.7 -31.7°
Drops below altitude 10° 11:25:27 10° 75° (ENE) 3,891 10.5 -30.2°
Sets 11:28:41 0° 72° (ENE) 4,899 11.3 -29.7°
